Torna al catalogo

FENGYUN 1C DEB

AttivoPO
NORAD 31555·DEBRIS·🇨🇳 China

Lanciato May 10, 1999 da Taiyuan Satellite Launch Center

Loading…

Prossimi Passaggi (prossime 24 ore)

TLE

AggiornatoSource: Space-Track

Epoca: Sep 13, 2026, 04:28 UTC

1 31555U 99025BYW 26256.18644926  .00003571  00000-0  85705-3 0  9999
2 31555  99.1243 235.8917 0149767 100.7957 261.0131 14.47497646  5299

Traccia FENGYUN 1C DEB in tempo reale con AllMySat

Download on the App Store